User: anonymous   Login
Location: Unspecified
(0.0000°N, 0.0000°E)
Time: 20:47:02
(UTC+00:00)
Language:

Tele-X - Orbit

View from above orbital plane
View from above orbital plane
View from above satellite
View from above satellite

Ground track
Ground track

The orbit data is extracted from the following two-line orbital elements,

1 19919U 89027A   18140.83802150 -.00000113 +00000-0 +00000-0 0  9992
2 19919 015.0513 016.9169 0002862 055.8646 122.4602 00.99181714087956
Epoch (UTC): 20 May 2018 20:06:45
Eccentricity: 0.0002862
inclination: 15.0513°
perigee height: 36082 km
apogee height: 36107 km
right ascension of ascending node: 16.9169°
argument of perigee: 55.8646°
revolutions per day: 0.99181714
mean anomaly at epoch: 122.4602°
orbit number at epoch: 8795

The dashed part of the orbit path shows where the satellite is in the earth's shadow,  

DLR